User: anonymous   Login
Location: Baumgarten
(49.0970°N, 12.7493°E)
Time: 07:31:50
(UTC+00:00)
Language:

GP-B - Orbit

View from above orbital plane
View from above orbital plane
View from above satellite
View from above satellite

Ground track
Ground track

The orbit data is extracted from the following two-line orbital elements,

1 28230U 04014A   20273.90779524 +.00000140 +00000-0 +16889-4 0  9992
2 28230 089.8100 096.2720 0002489 105.8065 254.3433 14.78751378343721
Epoch (UTC): 29 September 2020 21:47:13
Eccentricity: 0.0002489
inclination: 89.8100°
perigee height: 631 km
apogee height: 635 km
right ascension of ascending node: 96.2720°
argument of perigee: 105.8065°
revolutions per day: 14.78751378
mean anomaly at epoch: 254.3433°
orbit number at epoch: 34372

The dashed part of the orbit path shows where the satellite is in the earth's shadow,  

DLR